New Bern, NC

4:29 AM EDT on October 17, 2019 (GMT -0400)
Craven County Regional

Weather History for KEWN - August, 2019

Change the Weather History Date:

Friday, August 2, 2019

  Actual Average Record
Temperature  
Mean Temperature 80 °F 80 °F  
Max Temperature 87 °F 89 °F 96 °F (1953)
Min Temperature 72 °F 72 °F 58 °F (1966)
Degree Days  
Heating Degree Days 0 0  
Month to date heating degree days 0 0  
Since 1 June heating degree days 0 1  
Since 1 July heating degree days 0 0  
Cooling Degree Days 14 15  
Month to date cooling degree days 31 30  
Year to date cooling degree days 1350 1120  
Since 1 June cooling degree days 931 877  
Growing Degree Days 30 (Base 50)    
Moisture  
Dew Point 73 °F    
Average Humidity 92    
Maximum Humidity 100    
Minimum Humidity 65    
Precipitation  
Precipitation 1.02 in 0.21 in 2.51 in (1973)
Month to date precipitation 1.03 0.42  
Year to date precipitation 23.97 30.57  
Snow  
Snow 0.00 in - - ()
Month to date snowfall 0.0  
Since 1 July snowfall 0.0  
Snow Depth 0.00 in    
Sea Level Pressure  
Sea Level Pressure 30.07 in    
Wind  
Wind Speed 4 mph ()    
Max Wind Speed 18 mph    
Max Gust Speed 25 mph    
Visibility 8.3 miles    
Events Fog , Rain , Thunderstorm    
T = Trace of Precipitation, MM = Missing Value Source: Averaged Metar Reports

Daily Weather History Graph

Daily Weather History Graph

Search for Another Location

Airport or City:

Astronomy

Aug. 02, 2019 Rise Set
Actual Time 6:18 AM EDT 8:10 PM EDT
Civil Twilight 5:50 AM EDT 8:38 PM EDT
Nautical Twilight 5:16 AM EDT 9:11 PM EDT
Astronomical Twilight 4:40 AM EDT 9:47 PM EDT
Moon 7:52 AM EDT (8/2) 9:41 PM EDT (8/2)
Length of Visible Light 14h 47m
Length of Day
13h 52m
Waxing Crescent, 4% of the Moon is Illuminated
Aug 2
Waxing Crescent
Aug 7
First Quarter
Aug 15
Full
Aug 23
Last Quarter
Aug 30
New

Hourly Weather History & Observations

Time (EDT) Temp. Heat Index Dew Point Humidity Pressure Visibility Wind Dir Wind Speed Gust Speed Precip Events Conditions
12:54 AM 73.0 °F - 71.1 °F 93% 30.10 in 10.0 mi Calm Calm - N/A   Clear
1:54 AM 73.0 °F - 72.0 °F 96% 30.09 in 10.0 mi Calm Calm - N/A   Clear
2:54 AM 73.0 °F - 72.0 °F 96% 30.06 in 10.0 mi Calm Calm - N/A   Clear
3:54 AM 73.0 °F - 73.0 °F 100% 30.07 in 10.0 mi NNW 3.5 mph - N/A   Scattered Clouds
4:04 AM 73.9 °F - 73.0 °F 97% 30.08 in 10.0 mi NNW 5.8 mph - N/A   Mostly Cloudy
4:54 AM 75.0 °F - 71.1 °F 87% 30.06 in 10.0 mi North 5.8 mph - N/A   Overcast
5:54 AM 73.9 °F - 70.0 °F 87% 30.06 in 10.0 mi North 4.6 mph - N/A   Partly Cloudy
6:54 AM 73.9 °F - 70.0 °F 87% 30.08 in 10.0 mi NE 4.6 mph - N/A   Clear
7:54 AM 75.9 °F - 71.1 °F 85% 30.08 in 10.0 mi ENE 4.6 mph - N/A   Clear
8:54 AM 79.0 °F - 71.1 °F 77% 30.08 in 10.0 mi ENE 8.1 mph - N/A   Partly Cloudy
9:54 AM 81.0 °F 86.2 °F 73.9 °F 79% 30.10 in 10.0 mi ENE 4.6 mph - N/A   Clear
10:54 AM 82.9 °F 89.4 °F 73.9 °F 74% 30.10 in 10.0 mi East 4.6 mph - N/A   Clear
11:54 AM 86.0 °F 95.1 °F 75.0 °F 70% 30.10 in 10.0 mi East 8.1 mph - N/A   Mostly Cloudy
12:54 PM 86.0 °F 93.8 °F 73.9 °F 67% 30.08 in 10.0 mi Variable 5.8 mph - N/A   Partly Cloudy
1:40 PM 77.0 °F - 71.1 °F 82% 30.11 in 10.0 mi Variable 4.6 mph - N/A Thunderstorm Thunderstorm
1:54 PM 73.9 °F - 71.1 °F 91% 30.11 in 2.0 mi Calm Calm - 0.05 in Rain , Thunderstorm Heavy Thunderstorms and Rain
2:00 PM 75.0 °F - 71.1 °F 87% 30.11 in 3.0 mi Calm Calm - 0.01 in Rain Rain
2:16 PM 75.0 °F - 72.0 °F 90% 30.10 in 7.0 mi North 4.6 mph - 0.02 in Rain Light Rain
2:54 PM 75.0 °F - 73.9 °F 96% 30.08 in 9.0 mi WSW 4.6 mph - 0.04 in Rain Light Rain
3:54 PM 75.9 °F - 73.9 °F 94% 30.05 in 10.0 mi Calm Calm - 0.01 in Rain Light Rain
4:22 PM 77.0 °F - 73.9 °F 90% 30.06 in 10.0 mi Calm Calm - 0.00 in   Mostly Cloudy
4:42 PM 77.0 °F - 73.9 °F 90% 30.06 in 10.0 mi NNE 4.6 mph - 0.00 in Rain Light Rain
4:54 PM 77.0 °F - 73.9 °F 90% 30.06 in 10.0 mi NE 4.6 mph - 0.00 in   Clear
5:21 PM 77.0 °F - 75.9 °F 96% 30.06 in 10.0 mi NNE 5.8 mph - N/A   Mostly Cloudy
5:38 PM 78.1 °F - 75.0 °F 90% 30.06 in 10.0 mi ENE 5.8 mph - N/A   Mostly Cloudy
5:54 PM 78.1 °F - 75.0 °F 90% 30.06 in 10.0 mi NNW 3.5 mph - N/A   Overcast
6:09 PM 75.9 °F - 73.9 °F 94% 30.07 in 1.5 mi North - - 0.13 in Rain , Thunderstorm Light Thunderstorms and Rain
6:11 PM 73.9 °F - 73.0 °F 97% 30.07 in 0.8 mi SE 13.8 mph - 0.29 in Rain , Thunderstorm Heavy Thunderstorms and Rain
6:15 PM 73.9 °F - 73.0 °F 97% 30.08 in 0.5 mi ESE 17.3 mph - 0.55 in Fog , Rain , Thunderstorm Heavy Thunderstorms and Rain
6:20 PM 73.0 °F - 72.0 °F 96% 30.07 in 0.5 mi ESE 13.8 mph - 0.74 in Fog , Rain Heavy Rain
6:25 PM 73.0 °F - 71.1 °F 93% 30.07 in 0.8 mi East 8.1 mph - 0.84 in Rain Heavy Rain
6:34 PM 73.0 °F - 72.0 °F 96% 30.06 in 2.0 mi ESE 9.2 mph - 0.89 in Rain Rain
6:43 PM 73.0 °F - 72.0 °F 96% 30.07 in 10.0 mi NE 8.1 mph - 0.90 in Rain Light Rain
6:52 PM 73.4 °F - 71.6 °F 94% 30.07 in 10.0 mi ENE 6.9 mph - 0.90 in Rain Light Rain
6:54 PM 73.0 °F - 72.0 °F 96% 30.06 in 10.0 mi ENE 6.9 mph - 0.90 in Rain Light Rain
7:06 PM 73.9 °F - 73.0 °F 97% 30.06 in 10.0 mi ENE 5.8 mph - 0.00 in Rain Light Rain
7:54 PM 73.0 °F - 73.0 °F 100% 30.06 in 10.0 mi ENE 6.9 mph - 0.02 in Rain Light Rain
8:33 PM 73.0 °F - 73.0 °F 100% 30.05 in 10.0 mi SSW 5.8 mph - 0.00 in Rain Light Rain
8:43 PM 73.0 °F - 73.0 °F 100% 30.05 in 10.0 mi SW 3.5 mph - 0.00 in   Mostly Cloudy
8:54 PM 73.0 °F - 73.0 °F 100% 30.05 in 10.0 mi SE 4.6 mph - 0.00 in   Scattered Clouds
9:54 PM 73.0 °F - 73.0 °F 100% 30.06 in 10.0 mi Calm Calm - 0.00 in Rain Light Rain
10:54 PM 73.0 °F - 73.0 °F 100% 30.06 in 10.0 mi Calm Calm - 0.00 in   Clear
11:54 PM 73.0 °F - 73.0 °F 100% 30.06 in 10.0 mi Calm Calm - 0.00 in   Mostly Cloudy